This is the latest recevied weather packets stored in our database for station/object LU3HGB-WX. If no packets are shown the sender has not sent any weather packets the latest 10 day(s).
| Time | Temp. | Humidity | Pressure | Rain* | Wind** | Luminosity | Snow |
|---|---|---|---|---|---|---|---|
| 1788503260 | 5° C | 69% | 1021 hPa | 0 mm | - | 0 W/m² | - |
| 1788502960 | 5° C | 66% | 1021 hPa | 0 mm | - | 0 W/m² | - |
| 1788502660 | 4.44° C | 67% | 1021 hPa | 0 mm | - | 0 W/m² | - |
| 1788502359 | 5° C | 66% | 1021 hPa | 0 mm | - | 0 W/m² | - |
| 1788502059 | 5° C | 68% | 1021 hPa | 0 mm | - | 0 W/m² | - |
| 1788501759 | 5° C | 67% | 1020 hPa | 0 mm | - | 0 W/m² | - |
| 1788501459 | 5.56° C | 70% | 1020 hPa | 0 mm | - | 0 W/m² | - |
| 1788501160 | 5.56° C | 68% | 1020 hPa | 0 mm | - | 0 W/m² | - |
| 1788500860 | 6.11° C | 68% | 1020 hPa | 0 mm | - | 0 W/m² | - |
| 1788500559 | 6.11° C | 65% | 1020 hPa | 0 mm | - | 0 W/m² | - |
| 1788500260 | 6.11° C | 70% | 1020 hPa | 0 mm | - | 0 W/m² | - |
| 1788499959 | 6.11° C | 69% | 1020 hPa | 0 mm | - | 0 W/m² | - |
| 1788499660 | 6.11° C | 66% | 1020 hPa | 0 mm | - | 0 W/m² | - |
| 1788499140 | 6.11° C | 72% | 1020 hPa | 0 mm | - | 0 W/m² | - |
| 1788498760 | 6.11° C | 70% | 1020 hPa | 0 mm | - | 0 W/m² | - |
| 1788498460 | 6.11° C | 69% | 1020 hPa | 0 mm | - | 0 W/m² | - |
| 1788498159 | 5.56° C | 66% | 1020 hPa | 0 mm | - | 0 W/m² | - |
| 1788497859 | 5.56° C | 70% | 1020 hPa | 0 mm | - | 0 W/m² | - |
| 1788497560 | 6.11° C | 71% | 1020 hPa | 0 mm | - | 0 W/m² | - |
| 1788497259 | 6.11° C | 70% | 1020 hPa | 0 mm | - | 0 W/m² | - |
| 1788496961 | 6.11° C | 69% | 1020 hPa | 0 mm | - | 0 W/m² | - |
| 1788496660 | 6.11° C | 68% | 1020 hPa | 0 mm | - | 0 W/m² | - |
| 1788496360 | 6.67° C | 69% | 1020 hPa | 0 mm | - | 0 W/m² | - |
| 1788496060 | 6.67° C | 66% | 1020 hPa | 0 mm | - | 0 W/m² | - |
| 1788495760 | 7.22° C | 65% | 1020 hPa | 0 mm | - | 0 W/m² | - |
* Rain latest hour (hover to see other rain measurements)
** Current wind speed in m/s (hover to see current wind gust speed)